Location: *
(49.3500°N, 12.6000°E)
Time: 00:17:02
(UTC+00:00)

Cosmos 2016 Rocket - Pass Details

Date: 18 October 2019
Orbit: 947 x 1000 km, 83.0° (Epoch: 11 November)

Event Time Altitude Azimuth Distance (km) Brightness Sun altitude
Rises 18:33:45 0° 352° (N) 3,678 7.3 -23.4°
Reaches altitude 10° 18:36:17 10° 355° (N) 2,734 6.5 -23.8°
Maximum altitude 18:42:32 67° 78° (ENE) 1,067 3.9 -24.8°
Enters shadow 18:43:51 53° 132° (SE) 1,196 4.1 -25.0°
